owner,sensor,date,latitude,longitude,vertical_datum,wind_speed,wind_to_direction,wind_speed_of_gust,qcFlag 
TABS,ioos:station:wmo:42043:1,2019-10-01T04:00:00Z,28.9818,-94.9186,4.0,7.15,111.0,9.34,'11111222,11111222,11111222' 
TABS,ioos:station:wmo:42043:1,2019-10-01T05:00:00Z,28.9818,-94.9186,4.0,7.14,114.4,8.77,'11111222,11111222,11111222' 
TABS,ioos:station:wmo:42043:1,2019-10-01T05:30:00Z,28.9818,-94.9186,4.0,7.88,116.4,9.73,'11111222,11111222,11111222' 
TABS,ioos:station:wmo:42043:1,2019-10-01T06:30:00Z,28.9818,-94.9186,4.0,9.09,120.3,10.46,'11111222,11111222,11111222' 
TABS,ioos:station:wmo:42043:1,2019-10-01T08:00:00Z,28.9818,-94.9186,4.0,7.81,130.3,9.33,'11111222,11111222,11111222' 
TABS,ioos:station:wmo:42043:1,2019-10-01T09:00:00Z,28.9818,-94.9186,4.0,6.91,130.9,8.37,'11111222,11111222,11111222' 
TABS,ioos:station:wmo:42043:1,2019-10-01T10:00:00Z,28.9818,-94.9186,4.0,6.48,123.4,7.93,'11111222,11111222,11111222' 
TABS,ioos:station:wmo:42043:1,2019-10-01T12:00:00Z,28.9818,-94.9186,4.0,6.67,120.6,8.12,'11111222,11111222,11111222' 
TABS,ioos:station:wmo:42043:1,2019-10-01T13:00:00Z,28.9818,-94.9186,4.0,5.94,127.7,7.27,'11111222,11111222,11111222' 
TABS,ioos:station:wmo:42043:1,2019-10-01T14:00:00Z,28.9818,-94.9186,4.0,5.66,129.2,6.77,'11111222,11111222,11111222' 
TABS,ioos:station:wmo:42043:1,2019-10-01T15:00:00Z,28.9818,-94.9186,4.0,5.51,126.6,7.11,'11111222,11111222,11111222' 
TABS,ioos:station:wmo:42043:1,2019-10-01T16:00:00Z,28.9818,-94.9186,4.0,5.13,122.9,6.35,'11111222,11111222,11111222' 
TABS,ioos:station:wmo:42043:1,2019-10-01T17:00:00Z,28.9818,-94.9186,4.0,5.05,118.9,6.49,'11111222,11111222,11111222' 
TABS,ioos:station:wmo:42043:1,2019-10-01T18:00:00Z,28.9818,-94.9186,4.0,5.57,111.0,6.57,'11111222,11111222,11111222' 
TABS,ioos:station:wmo:42043:1,2019-10-01T19:00:00Z,28.9818,-94.9186,4.0,5.81,110.4,7.12,'11111222,11111222,11111222' 
TABS,ioos:station:wmo:42043:1,2019-10-01T20:00:00Z,28.9818,-94.9186,4.0,6.34,103.9,7.51,'11111222,11111222,11111222' 
TABS,ioos:station:wmo:42043:1,2019-10-01T21:00:00Z,28.9818,-94.9186,4.0,6.42,104.5,7.92,'11111222,11111222,11111222' 
TABS,ioos:station:wmo:42043:1,2019-10-01T22:00:00Z,28.9818,-94.9186,4.0,6.64,104.4,7.95,'11111222,11111222,11111222' 
TABS,ioos:station:wmo:42043:1,2019-10-01T23:00:00Z,28.9818,-94.9186,4.0,7.15,105.6,8.48,'11111222,11111222,11111222' 
TABS,ioos:station:wmo:42043:1,2019-10-01T23:30:00Z,28.9818,-94.9186,4.0,6.8,109.7,7.85,'11111222,11111222,11111222' 
TABS,ioos:station:wmo:42043:1,2019-10-02T04:00:00Z,28.9818,-94.9186,4.0,6.91,119.7,8.14,'11111222,11111222,11111222' 
TABS,ioos:station:wmo:42043:1,2019-10-02T05:00:00Z,28.9818,-94.9186,4.0,6.2,119.9,7.47,'11111222,11111222,11111222' 
TABS,ioos:station:wmo:42043:1,2019-10-02T06:00:00Z,28.9818,-94.9186,4.0,6.17,120.6,7.74,'11111222,11111222,11111222' 
TABS,ioos:station:wmo:42043:1,2019-10-02T07:00:00Z,28.9818,-94.9186,4.0,5.38,127.7,6.48,'11111222,11111222,11111222' 
TABS,ioos:station:wmo:42043:1,2019-10-02T08:00:00Z,28.9818,-94.9186,4.0,5.48,119.7,6.73,'11111222,11111222,11111222' 
TABS,ioos:station:wmo:42043:1,2019-10-02T09:00:00Z,28.9818,-94.9186,4.0,5.26,120.0,6.66,'11111222,11111222,11111222' 
TABS,ioos:station:wmo:42043:1,2019-10-02T10:00:00Z,28.9818,-94.9186,4.0,4.73,121.1,5.72,'11111222,11111222,11111222' 
TABS,ioos:station:wmo:42043:1,2019-10-02T11:00:00Z,28.9818,-94.9186,4.0,4.44,111.2,5.21,'11111222,11111222,11111222' 
TABS,ioos:station:wmo:42043:1,2019-10-02T12:00:00Z,28.9818,-94.9186,4.0,3.52,113.3,4.21,'11111222,11111222,11111222' 
TABS,ioos:station:wmo:42043:1,2019-10-02T13:00:00Z,28.9818,-94.9186,4.0,3.76,86.8,4.66,'11111222,11111222,11111222' 
TABS,ioos:station:wmo:42043:1,2019-10-02T14:00:00Z,28.9818,-94.9186,4.0,4.53,80.9,5.24,'11111222,11111222,11111222' 
TABS,ioos:station:wmo:42043:1,2019-10-02T15:00:00Z,28.9818,-94.9186,4.0,5.2,75.4,6.23,'11111222,11111222,11111222' 
TABS,ioos:station:wmo:42043:1,2019-10-02T16:00:00Z,28.9818,-94.9186,4.0,4.77,77.8,5.49,'11111222,11111222,11111222' 
TABS,ioos:station:wmo:42043:1,2019-10-02T17:00:00Z,28.9818,-94.9186,4.0,5.51,80.9,6.52,'11111222,11111222,11111222' 
TABS,ioos:station:wmo:42043:1,2019-10-02T18:00:00Z,28.9818,-94.9186,4.0,5.73,85.5,6.71,'11111222,11111222,11111222' 
TABS,ioos:station:wmo:42043:1,2019-10-02T19:00:00Z,28.9818,-94.9186,4.0,5.02,88.6,6.23,'11111222,11111222,11111222' 
TABS,ioos:station:wmo:42043:1,2019-10-02T20:00:00Z,28.9818,-94.9186,4.0,5.5,89.8,6.77,'11111222,11111222,11111222' 
TABS,ioos:station:wmo:42043:1,2019-10-02T21:00:00Z,28.9818,-94.9186,4.0,5.75,85.7,6.7,'11111222,11111222,11111222' 
TABS,ioos:station:wmo:42043:1,2019-10-02T22:00:00Z,28.9818,-94.9186,4.0,5.69,90.8,7.14,'11111222,11111222,11111222' 
TABS,ioos:station:wmo:42043:1,2019-10-02T23:00:00Z,28.9818,-94.9186,4.0,5.06,91.9,6.03,'11111222,11111222,11111222' 
TABS,ioos:station:wmo:42043:1,2019-10-02T23:30:00Z,28.9818,-94.9186,4.0,5.03,97.1,6.61,'11111222,11111222,11111222' 
TABS,ioos:station:wmo:42043:1,2019-10-03T04:00:00Z,28.9818,-94.9186,4.0,5.54,113.0,6.56,'11111222,11111222,11111222' 
TABS,ioos:station:wmo:42043:1,2019-10-03T05:00:00Z,28.9818,-94.9186,4.0,4.68,110.1,5.99,'11111222,11111222,11111222' 
TABS,ioos:station:wmo:42043:1,2019-10-03T06:00:00Z,28.9818,-94.9186,4.0,4.56,116.9,5.51,'11111222,11111222,11111222' 
TABS,ioos:station:wmo:42043:1,2019-10-03T07:00:00Z,28.9818,-94.9186,4.0,4.49,116.8,5.66,'11111222,11111222,11111222' 
TABS,ioos:station:wmo:42043:1,2019-10-03T08:00:00Z,28.9818,-94.9186,4.0,4.09,102.5,5.48,'11111222,11111222,11111222' 
TABS,ioos:station:wmo:42043:1,2019-10-03T09:00:00Z,28.9818,-94.9186,4.0,4.83,106.2,5.92,'11111222,11111222,11111222' 
TABS,ioos:station:wmo:42043:1,2019-10-03T10:00:00Z,28.9818,-94.9186,4.0,4.17,94.1,5.02,'11111222,11111222,11111222' 
TABS,ioos:station:wmo:42043:1,2019-10-03T11:00:00Z,28.9818,-94.9186,4.0,4.28,97.3,5.26,'11111222,11111222,11111222' 
TABS,ioos:station:wmo:42043:1,2019-10-03T12:00:00Z,28.9818,-94.9186,4.0,4.47,85.2,5.4,'11111222,11111222,11111222' 
TABS,ioos:station:wmo:42043:1,2019-10-03T13:00:00Z,28.9818,-94.9186,4.0,5.15,89.7,6.27,'11111222,11111222,11111222' 
TABS,ioos:station:wmo:42043:1,2019-10-03T14:00:00Z,28.9818,-94.9186,4.0,4.94,80.3,5.71,'11111222,11111222,11111222' 
TABS,ioos:station:wmo:42043:1,2019-10-03T15:00:00Z,28.9818,-94.9186,4.0,5.22,77.5,6.12,'11111222,11111222,11111222' 
TABS,ioos:station:wmo:42043:1,2019-10-03T16:00:00Z,28.9818,-94.9186,4.0,5.22,72.1,6.08,'11111222,11111222,11111222' 
TABS,ioos:station:wmo:42043:1,2019-10-03T17:00:00Z,28.9818,-94.9186,4.0,6.09,67.7,7.78,'11111222,11111222,11111222' 
TABS,ioos:station:wmo:42043:1,2019-10-03T18:00:00Z,28.9818,-94.9186,4.0,5.66,70.4,6.74,'11111222,11111222,11111222' 
TABS,ioos:station:wmo:42043:1,2019-10-03T19:00:00Z,28.9818,-94.9186,4.0,6.35,66.2,7.78,'11111222,11111222,11111222' 
TABS,ioos:station:wmo:42043:1,2019-10-03T19:30:00Z,28.9818,-94.9186,4.0,5.85,71.8,7.06,'11111222,11111222,11111222' 
TABS,ioos:station:wmo:42043:1,2019-10-03T21:30:00Z,28.9818,-94.9186,4.0,4.77,77.0,5.6,'11111222,11111222,11111222' 
TABS,ioos:station:wmo:42043:1,2019-10-03T23:00:00Z,28.9818,-94.9186,4.0,5.56,97.4,6.82,'11111222,11111222,11111222' 
TABS,ioos:station:wmo:42043:1,2019-10-03T23:30:00Z,28.9818,-94.9186,4.0,5.27,99.7,6.35,'11111222,11111222,11111222' 
TABS,ioos:station:wmo:42043:1,2019-10-04T04:00:00Z,28.9818,-94.9186,4.0,5.55,91.7,6.83,'11111222,11111222,11111222' 
TABS,ioos:station:wmo:42043:1,2019-10-04T05:00:00Z,28.9818,-94.9186,4.0,5.63,97.7,6.95,'11111222,11111222,11111222' 
TABS,ioos:station:wmo:42043:1,2019-10-04T06:00:00Z,28.9818,-94.9186,4.0,4.59,104.6,6.01,'11111222,11111222,11111222' 
TABS,ioos:station:wmo:42043:1,2019-10-04T07:00:00Z,28.9818,-94.9186,4.0,4.44,96.8,5.54,'11111222,11111222,11111222' 
TABS,ioos:station:wmo:42043:1,2019-10-04T08:00:00Z,28.9818,-94.9186,4.0,3.49,77.1,4.26,'11111222,11111222,11111222' 
TABS,ioos:station:wmo:42043:1,2019-10-04T09:00:00Z,28.9818,-94.9186,4.0,3.7,68.1,4.72,'11111222,11111222,11111222' 
TABS,ioos:station:wmo:42043:1,2019-10-04T10:00:00Z,28.9818,-94.9186,4.0,4.6,67.3,5.65,'11111222,11111222,11111222' 
TABS,ioos:station:wmo:42043:1,2019-10-04T11:00:00Z,28.9818,-94.9186,4.0,5.21,54.1,6.26,'11111222,11111222,11111222' 
TABS,ioos:station:wmo:42043:1,2019-10-04T12:00:00Z,28.9818,-94.9186,4.0,5.96,50.3,6.98,'11111222,11111222,11111222' 
TABS,ioos:station:wmo:42043:1,2019-10-04T13:00:00Z,28.9818,-94.9186,4.0,5.5,50.1,6.56,'11111222,11111222,11111222' 
TABS,ioos:station:wmo:42043:1,2019-10-04T14:00:00Z,28.9818,-94.9186,4.0,5.74,58.4,6.73,'11111222,11111222,11111222' 
TABS,ioos:station:wmo:42043:1,2019-10-04T15:00:00Z,28.9818,-94.9186,4.0,5.67,55.9,7.09,'11111222,11111222,11111222' 
TABS,ioos:station:wmo:42043:1,2019-10-04T16:00:00Z,28.9818,-94.9186,4.0,4.52,47.5,5.48,'11111222,11111222,11111222' 
TABS,ioos:station:wmo:42043:1,2019-10-04T17:00:00Z,28.9818,-94.9186,4.0,4.0,53.2,4.97,'11111222,11111222,11111222' 
TABS,ioos:station:wmo:42043:1,2019-10-04T18:00:00Z,28.9818,-94.9186,4.0,3.31,45.7,4.36,'11111222,11111222,11111222' 
TABS,ioos:station:wmo:42043:1,2019-10-04T19:00:00Z,28.9818,-94.9186,4.0,3.02,51.6,3.73,'11111222,11111222,11111222' 
TABS,ioos:station:wmo:42043:1,2019-10-04T20:00:00Z,28.9818,-94.9186,4.0,3.01,52.1,3.81,'11111222,11111222,11111222' 
TABS,ioos:station:wmo:42043:1,2019-10-04T21:00:00Z,28.9818,-94.9186,4.0,2.46,65.4,3.21,'11111222,11111222,11111222' 
TABS,ioos:station:wmo:42043:1,2019-10-04T22:00:00Z,28.9818,-94.9186,4.0,1.28,75.2,1.85,'11111222,11111222,11111222' 
TABS,ioos:station:wmo:42043:1,2019-10-04T23:00:00Z,28.9818,-94.9186,4.0,1.02,59.3,1.54,'11111222,11111222,11111222' 
TABS,ioos:station:wmo:42043:1,2019-10-04T23:30:00Z,28.9818,-94.9186,4.0,1.29,43.9,2.01,'11111222,11111222,11111222' 
TABS,ioos:station:wmo:42043:1,2019-10-05T04:00:00Z,28.9818,-94.9186,4.0,1.98,72.5,2.6,'11111222,11111222,11111222' 
TABS,ioos:station:wmo:42043:1,2019-10-05T05:00:00Z,28.9818,-94.9186,4.0,2.07,53.6,2.54,'11111222,11111222,11111222' 
TABS,ioos:station:wmo:42043:1,2019-10-05T06:00:00Z,28.9818,-94.9186,4.0,0.81,72.3,1.23,'11111222,11111222,11111222' 
TABS,ioos:station:wmo:42043:1,2019-10-05T07:00:00Z,28.9818,-94.9186,4.0,1.03,87.2,1.62,'11111222,11111222,11111222' 
TABS,ioos:station:wmo:42043:1,2019-10-05T08:00:00Z,28.9818,-94.9186,4.0,3.2,54.2,4.34,'11111222,11111222,11111222' 
TABS,ioos:station:wmo:42043:1,2019-10-05T09:00:00Z,28.9818,-94.9186,4.0,2.43,63.9,3.36,'11111222,11111222,11111222' 
TABS,ioos:station:wmo:42043:1,2019-10-05T10:00:00Z,28.9818,-94.9186,4.0,1.85,75.3,2.43,'11111222,11111222,11111222' 
TABS,ioos:station:wmo:42043:1,2019-10-05T11:00:00Z,28.9818,-94.9186,4.0,1.32,78.1,2.13,'11111222,11111222,11111222' 
TABS,ioos:station:wmo:42043:1,2019-10-05T12:00:00Z,28.9818,-94.9186,4.0,1.01,112.5,1.4,'11111222,11111222,11111222' 
TABS,ioos:station:wmo:42043:1,2019-10-05T13:00:00Z,28.9818,-94.9186,4.0,0.5,98.9,0.85,'11111222,11111222,11111222' 
TABS,ioos:station:wmo:42043:1,2019-10-05T14:00:00Z,28.9818,-94.9186,4.0,1.08,213.9,1.42,'11111222,11111222,11111222' 
TABS,ioos:station:wmo:42043:1,2019-10-05T15:00:00Z,28.9818,-94.9186,4.0,1.63,339.7,2.4,'11111222,11111222,11111222' 
TABS,ioos:station:wmo:42043:1,2019-10-05T16:00:00Z,28.9818,-94.9186,4.0,2.36,337.9,3.06,'11111222,11111222,11111222' 
TABS,ioos:station:wmo:42043:1,2019-10-05T17:00:00Z,28.9818,-94.9186,4.0,2.0,358.2,2.93,'11111222,11111222,11111222' 
TABS,ioos:station:wmo:42043:1,2019-10-05T18:00:00Z,28.9818,-94.9186,4.0,1.52,27.0,2.15,'11111222,11111222,11111222' 
TABS,ioos:station:wmo:42043:1,2019-10-05T19:00:00Z,28.9818,-94.9186,4.0,1.8,54.5,2.63,'11111222,11111222,11111222' 
TABS,ioos:station:wmo:42043:1,2019-10-05T20:00:00Z,28.9818,-94.9186,4.0,1.47,57.5,2.19,'11111222,11111222,11111222' 
TABS,ioos:station:wmo:42043:1,2019-10-05T21:00:00Z,28.9818,-94.9186,4.0,2.4,67.4,3.19,'11111222,11111222,11111222' 
TABS,ioos:station:wmo:42043:1,2019-10-05T22:00:00Z,28.9818,-94.9186,4.0,1.7,89.4,2.28,'11111222,11111222,11111222' 
TABS,ioos:station:wmo:42043:1,2019-10-05T23:00:00Z,28.9818,-94.9186,4.0,2.15,97.2,2.83,'11111222,11111222,11111222' 
TABS,ioos:station:wmo:42043:1,2019-10-05T23:30:00Z,28.9818,-94.9186,4.0,2.78,111.7,3.36,'11111222,11111222,11111222' 
TABS,ioos:station:wmo:42043:1,2019-10-06T04:00:00Z,28.9818,-94.9186,4.0,4.0,105.5,4.98,'11111222,11111222,11111222' 
TABS,ioos:station:wmo:42043:1,2019-10-06T05:00:00Z,28.9818,-94.9186,4.0,3.87,102.2,5.08,'11111222,11111222,11111222' 
TABS,ioos:station:wmo:42043:1,2019-10-06T06:00:00Z,28.9818,-94.9186,4.0,4.13,104.4,5.19,'11111222,11111222,11111222' 
TABS,ioos:station:wmo:42043:1,2019-10-06T07:00:00Z,28.9818,-94.9186,4.0,5.21,102.8,6.44,'11111222,11111222,11111222' 
TABS,ioos:station:wmo:42043:1,2019-10-06T08:00:00Z,28.9818,-94.9186,4.0,4.75,108.8,6.01,'11111222,11111222,11111222' 
TABS,ioos:station:wmo:42043:1,2019-10-06T09:00:00Z,28.9818,-94.9186,4.0,3.97,122.1,4.89,'11111222,11111222,11111222' 
TABS,ioos:station:wmo:42043:1,2019-10-06T10:00:00Z,28.9818,-94.9186,4.0,2.23,125.6,3.04,'11111222,11111222,11111222' 
TABS,ioos:station:wmo:42043:1,2019-10-06T11:00:00Z,28.9818,-94.9186,4.0,3.5,105.9,4.56,'11111222,11111222,11111222' 
TABS,ioos:station:wmo:42043:1,2019-10-06T12:00:00Z,28.9818,-94.9186,4.0,3.76,107.3,4.63,'11111222,11111222,11111222' 
TABS,ioos:station:wmo:42043:1,2019-10-06T13:00:00Z,28.9818,-94.9186,4.0,3.73,104.6,4.78,'11111222,11111222,11111222' 
TABS,ioos:station:wmo:42043:1,2019-10-06T14:00:00Z,28.9818,-94.9186,4.0,4.65,95.5,5.78,'11111222,11111222,11111222' 
TABS,ioos:station:wmo:42043:1,2019-10-06T15:00:00Z,28.9818,-94.9186,4.0,3.22,99.1,4.8,'11111222,11111222,11111222' 
TABS,ioos:station:wmo:42043:1,2019-10-06T16:00:00Z,28.9818,-94.9186,4.0,3.8,97.7,5.78,'11111222,11111222,11111222' 
TABS,ioos:station:wmo:42043:1,2019-10-06T17:00:00Z,28.9818,-94.9186,4.0,3.83,94.8,5.23,'11111222,11111222,11111222' 
TABS,ioos:station:wmo:42043:1,2019-10-06T18:00:00Z,28.9818,-94.9186,4.0,3.57,73.3,4.54,'11111222,11111222,11111222' 
TABS,ioos:station:wmo:42043:1,2019-10-06T19:00:00Z,28.9818,-94.9186,4.0,3.82,74.5,4.83,'11111222,11111222,11111222' 
TABS,ioos:station:wmo:42043:1,2019-10-06T20:00:00Z,28.9818,-94.9186,4.0,3.26,66.4,4.28,'11111222,11111222,11111222' 
TABS,ioos:station:wmo:42043:1,2019-10-06T21:00:00Z,28.9818,-94.9186,4.0,3.97,66.2,5.31,'11111222,11111222,11111222' 
TABS,ioos:station:wmo:42043:1,2019-10-06T22:00:00Z,28.9818,-94.9186,4.0,3.84,75.1,5.78,'11111222,11111222,11111222' 
TABS,ioos:station:wmo:42043:1,2019-10-06T23:00:00Z,28.9818,-94.9186,4.0,4.07,88.1,5.24,'11111222,11111222,11111222' 
TABS,ioos:station:wmo:42043:1,2019-10-06T23:30:00Z,28.9818,-94.9186,4.0,3.82,92.6,5.03,'11111222,11111222,11111222' 
TABS,ioos:station:wmo:42043:1,2019-10-07T04:00:00Z,28.9818,-94.9186,4.0,5.59,107.0,6.72,'11111222,11111222,11111222' 
TABS,ioos:station:wmo:42043:1,2019-10-07T04:30:00Z,28.9818,-94.9186,4.0,5.04,109.9,6.13,'11111222,11111222,11111222' 
TABS,ioos:station:wmo:42043:1,2019-10-07T06:00:00Z,28.9818,-94.9186,4.0,5.09,95.2,6.32,'11111222,11111222,11111222' 
TABS,ioos:station:wmo:42043:1,2019-10-07T07:00:00Z,28.9818,-94.9186,4.0,4.6,113.0,5.83,'11111222,11111222,11111222' 
TABS,ioos:station:wmo:42043:1,2019-10-07T08:00:00Z,28.9818,-94.9186,4.0,4.59,109.8,5.88,'11111222,11111222,11111222' 
TABS,ioos:station:wmo:42043:1,2019-10-07T09:00:00Z,28.9818,-94.9186,4.0,2.72,100.5,3.49,'11111222,11111222,11111222' 
TABS,ioos:station:wmo:42043:1,2019-10-07T10:00:00Z,28.9818,-94.9186,4.0,2.01,33.2,2.61,'11111222,11111222,11111222' 
TABS,ioos:station:wmo:42043:1,2019-10-07T11:00:00Z,28.9818,-94.9186,4.0,2.26,21.1,2.92,'11111222,11111222,11111222' 
TABS,ioos:station:wmo:42043:1,2019-10-07T12:00:00Z,28.9818,-94.9186,4.0,4.95,358.7,6.05,'11111222,11111222,11111222' 
TABS,ioos:station:wmo:42043:1,2019-10-07T14:30:00Z,28.9818,-94.9186,4.0,4.98,22.6,5.9,'11111222,11111222,11111222' 
TABS,ioos:station:wmo:42043:1,2019-10-07T15:00:00Z,28.9818,-94.9186,4.0,5.28,28.2,6.5,'11111222,11111222,11111222' 
TABS,ioos:station:wmo:42043:1,2019-10-07T16:00:00Z,28.9818,-94.9186,4.0,5.13,20.9,5.9,'11111222,11111222,11111222' 
TABS,ioos:station:wmo:42043:1,2019-10-07T17:00:00Z,28.9818,-94.9186,4.0,7.57,18.1,9.48,'11111222,11111222,11111222' 
TABS,ioos:station:wmo:42043:1,2019-10-07T18:00:00Z,28.9818,-94.9186,4.0,5.84,25.7,7.17,'11111222,11111222,11111222' 
TABS,ioos:station:wmo:42043:1,2019-10-07T19:00:00Z,28.9818,-94.9186,4.0,4.89,32.2,5.99,'11111222,11111222,11111222' 
TABS,ioos:station:wmo:42043:1,2019-10-07T20:00:00Z,28.9818,-94.9186,4.0,5.26,16.9,6.61,'11111222,11111222,11111222' 
TABS,ioos:station:wmo:42043:1,2019-10-07T21:00:00Z,28.9818,-94.9186,4.0,8.06,11.1,9.84,'11111222,11111222,11111222' 
TABS,ioos:station:wmo:42043:1,2019-10-07T22:00:00Z,28.9818,-94.9186,4.0,8.25,57.0,11.32,'11111222,11111222,11111222' 
TABS,ioos:station:wmo:42043:1,2019-10-07T23:00:00Z,28.9818,-94.9186,4.0,7.13,49.0,8.53,'11111222,11111222,11111222' 
TABS,ioos:station:wmo:42043:1,2019-10-07T23:30:00Z,28.9818,-94.9186,4.0,6.33,36.9,7.58,'11111222,11111222,11111222' 
TABS,ioos:station:wmo:42043:1,2019-10-08T04:00:00Z,28.9818,-94.9186,4.0,10.25,20.9,12.35,'11111222,11111222,11111222' 
TABS,ioos:station:wmo:42043:1,2019-10-08T05:00:00Z,28.9818,-94.9186,4.0,8.44,16.3,10.48,'11111222,11111222,11111222' 
TABS,ioos:station:wmo:42043:1,2019-10-08T06:00:00Z,28.9818,-94.9186,4.0,8.11,17.5,10.23,'11111222,11111222,11111222' 
TABS,ioos:station:wmo:42043:1,2019-10-08T07:00:00Z,28.9818,-94.9186,4.0,7.55,16.9,9.09,'11111222,11111222,11111222' 
TABS,ioos:station:wmo:42043:1,2019-10-08T08:00:00Z,28.9818,-94.9186,4.0,7.86,28.7,9.65,'11111222,11111222,11111222' 
TABS,ioos:station:wmo:42043:1,2019-10-08T09:00:00Z,28.9818,-94.9186,4.0,7.9,16.8,9.76,'11111222,11111222,11111222' 
TABS,ioos:station:wmo:42043:1,2019-10-08T10:00:00Z,28.9818,-94.9186,4.0,7.74,12.7,9.36,'11111222,11111222,11111222' 
TABS,ioos:station:wmo:42043:1,2019-10-08T11:00:00Z,28.9818,-94.9186,4.0,6.51,22.5,7.93,'11111222,11111222,11111222' 
TABS,ioos:station:wmo:42043:1,2019-10-08T12:00:00Z,28.9818,-94.9186,4.0,5.86,15.8,7.36,'11111222,11111222,11111222' 
TABS,ioos:station:wmo:42043:1,2019-10-08T13:00:00Z,28.9818,-94.9186,4.0,5.51,26.6,7.15,'11111222,11111222,11111222' 
TABS,ioos:station:wmo:42043:1,2019-10-08T14:00:00Z,28.9818,-94.9186,4.0,5.39,22.4,7.49,'11111222,11111222,11111222' 
TABS,ioos:station:wmo:42043:1,2019-10-08T15:00:00Z,28.9818,-94.9186,4.0,4.32,26.1,5.88,'11111222,11111222,11111222' 
TABS,ioos:station:wmo:42043:1,2019-10-08T15:30:00Z,28.9818,-94.9186,4.0,4.09,24.1,6.16,'11111222,11111222,11111222' 
TABS,ioos:station:wmo:42043:1,2019-10-08T17:00:00Z,28.9818,-94.9186,4.0,4.73,15.7,5.88,'11111222,11111222,11111222' 
TABS,ioos:station:wmo:42043:1,2019-10-08T18:00:00Z,28.9818,-94.9186,4.0,4.45,16.4,6.66,'11111222,11111222,11111222' 
TABS,ioos:station:wmo:42043:1,2019-10-08T19:00:00Z,28.9818,-94.9186,4.0,3.89,23.0,5.05,'11111222,11111222,11111222' 
TABS,ioos:station:wmo:42043:1,2019-10-08T20:00:00Z,28.9818,-94.9186,4.0,3.69,37.3,5.01,'11111222,11111222,11111222' 
TABS,ioos:station:wmo:42043:1,2019-10-08T21:00:00Z,28.9818,-94.9186,4.0,4.27,58.4,5.5,'11111222,11111222,11111222' 
TABS,ioos:station:wmo:42043:1,2019-10-08T22:00:00Z,28.9818,-94.9186,4.0,4.64,62.8,5.98,'11111222,11111222,11111222' 
TABS,ioos:station:wmo:42043:1,2019-10-08T23:00:00Z,28.9818,-94.9186,4.0,4.4,71.4,5.39,'11111222,11111222,11111222' 
TABS,ioos:station:wmo:42043:1,2019-10-08T23:30:00Z,28.9818,-94.9186,4.0,3.93,75.3,5.27,'11111222,11111222,11111222' 
TABS,ioos:station:wmo:42043:1,2019-10-09T04:00:00Z,28.9818,-94.9186,4.0,3.85,95.8,5.08,'11111222,11111222,11111222' 
TABS,ioos:station:wmo:42043:1,2019-10-09T05:00:00Z,28.9818,-94.9186,4.0,4.34,94.5,5.52,'11111222,11111222,11111222' 
TABS,ioos:station:wmo:42043:1,2019-10-09T06:00:00Z,28.9818,-94.9186,4.0,4.33,115.0,5.57,'11111222,11111222,11111222' 
TABS,ioos:station:wmo:42043:1,2019-10-09T07:00:00Z,28.9818,-94.9186,4.0,3.04,128.0,4.5,'11111222,11111222,11111222' 
TABS,ioos:station:wmo:42043:1,2019-10-09T08:00:00Z,28.9818,-94.9186,4.0,3.05,124.0,4.57,'11111222,11111222,11111222' 
TABS,ioos:station:wmo:42043:1,2019-10-09T09:00:00Z,28.9818,-94.9186,4.0,3.78,121.8,5.82,'11111222,11111222,11111222' 
TABS,ioos:station:wmo:42043:1,2019-10-09T10:00:00Z,28.9818,-94.9186,4.0,3.33,137.5,4.9,'11111222,11111222,11111222' 
TABS,ioos:station:wmo:42043:1,2019-10-09T11:00:00Z,28.9818,-94.9186,4.0,3.22,148.3,4.33,'11111222,11111222,11111222' 
TABS,ioos:station:wmo:42043:1,2019-10-09T12:00:00Z,28.9818,-94.9186,4.0,2.46,135.8,3.43,'11111222,11111222,11111222' 
TABS,ioos:station:wmo:42043:1,2019-10-09T13:00:00Z,28.9818,-94.9186,4.0,3.45,163.0,4.34,'11111222,11111222,11111222' 
TABS,ioos:station:wmo:42043:1,2019-10-09T14:00:00Z,28.9818,-94.9186,4.0,3.19,140.8,4.75,'11111222,11111222,11111222' 
TABS,ioos:station:wmo:42043:1,2019-10-09T15:00:00Z,28.9818,-94.9186,4.0,3.34,133.8,4.5,'11111222,11111222,11111222' 
TABS,ioos:station:wmo:42043:1,2019-10-09T16:00:00Z,28.9818,-94.9186,4.0,3.16,132.4,4.45,'11111222,11111222,11111222' 
TABS,ioos:station:wmo:42043:1,2019-10-09T17:00:00Z,28.9818,-94.9186,4.0,3.01,143.5,3.94,'11111222,11111222,11111222' 
TABS,ioos:station:wmo:42043:1,2019-10-09T18:00:00Z,28.9818,-94.9186,4.0,3.72,140.4,4.76,'11111222,11111222,11111222' 
TABS,ioos:station:wmo:42043:1,2019-10-09T19:00:00Z,28.9818,-94.9186,4.0,3.73,150.2,4.76,'11111222,11111222,11111222' 
TABS,ioos:station:wmo:42043:1,2019-10-09T20:00:00Z,28.9818,-94.9186,4.0,3.56,157.1,4.89,'11111222,11111222,11111222' 
TABS,ioos:station:wmo:42043:1,2019-10-09T21:00:00Z,28.9818,-94.9186,4.0,4.48,147.5,5.78,'11111222,11111222,11111222' 
TABS,ioos:station:wmo:42043:1,2019-10-09T22:00:00Z,28.9818,-94.9186,4.0,5.64,132.7,6.97,'11111222,11111222,11111222' 
TABS,ioos:station:wmo:42043:1,2019-10-09T22:30:00Z,28.9818,-94.9186,4.0,5.86,135.4,7.16,'11111222,11111222,11111222' 
TABS,ioos:station:wmo:42043:1,2019-10-09T23:30:00Z,28.9818,-94.9186,4.0,5.85,136.0,7.2,'11111222,11111222,11111222' 
TABS,ioos:station:wmo:42043:1,2019-10-10T04:00:00Z,28.9818,-94.9186,4.0,8.18,146.4,9.96,'11111222,11111222,11111222' 
TABS,ioos:station:wmo:42043:1,2019-10-10T05:00:00Z,28.9818,-94.9186,4.0,7.8,142.2,9.4,'11111222,11111222,11111222' 
TABS,ioos:station:wmo:42043:1,2019-10-10T06:00:00Z,28.9818,-94.9186,4.0,8.37,143.4,9.86,'11111222,11111222,11111222' 
TABS,ioos:station:wmo:42043:1,2019-10-10T07:00:00Z,28.9818,-94.9186,4.0,7.85,143.8,9.57,'11111222,11111222,11111222' 
TABS,ioos:station:wmo:42043:1,2019-10-10T08:00:00Z,28.9818,-94.9186,4.0,8.06,149.9,9.53,'11111222,11111222,11111222' 
TABS,ioos:station:wmo:42043:1,2019-10-10T09:00:00Z,28.9818,-94.9186,4.0,7.71,149.1,9.67,'11111222,11111222,11111222' 
TABS,ioos:station:wmo:42043:1,2019-10-10T10:00:00Z,28.9818,-94.9186,4.0,7.95,153.5,9.92,'11111222,11111222,11111222' 
TABS,ioos:station:wmo:42043:1,2019-10-10T11:00:00Z,28.9818,-94.9186,4.0,7.46,157.9,9.28,'11111222,11111222,11111222' 
TABS,ioos:station:wmo:42043:1,2019-10-10T12:00:00Z,28.9818,-94.9186,4.0,7.56,156.9,9.04,'11111222,11111222,11111222' 
TABS,ioos:station:wmo:42043:1,2019-10-10T13:00:00Z,28.9818,-94.9186,4.0,6.71,155.8,8.41,'11111222,11111222,11111222' 
TABS,ioos:station:wmo:42043:1,2019-10-10T13:30:00Z,28.9818,-94.9186,4.0,6.58,165.1,7.94,'11111222,11111222,11111222' 
TABS,ioos:station:wmo:42043:1,2019-10-10T15:00:00Z,28.9818,-94.9186,4.0,6.05,163.7,7.9,'11111222,11111222,11111222' 
TABS,ioos:station:wmo:42043:1,2019-10-10T16:00:00Z,28.9818,-94.9186,4.0,6.02,163.3,7.52,'11111222,11111222,11111222' 
TABS,ioos:station:wmo:42043:1,2019-10-10T17:00:00Z,28.9818,-94.9186,4.0,5.4,153.1,6.97,'11111222,11111222,11111222' 
TABS,ioos:station:wmo:42043:1,2019-10-10T18:00:00Z,28.9818,-94.9186,4.0,5.41,147.5,6.58,'11111222,11111222,11111222' 
TABS,ioos:station:wmo:42043:1,2019-10-10T19:00:00Z,28.9818,-94.9186,4.0,5.16,145.2,6.24,'11111222,11111222,11111222' 
TABS,ioos:station:wmo:42043:1,2019-10-10T20:00:00Z,28.9818,-94.9186,4.0,5.9,144.7,6.92,'11111222,11111222,11111222' 